Theta_e
349 350 350 351 350 350 349 348 348 345 345 344 342 340 339 338 337 335 334 334 334 333 331 330 333 332 331 331 329 328 328 327 330 327 329 329 331 330 331 331 326 328 328
348 349 349 347 346 346 345 345 345 343 342 341 340 337 336 335 334 334 333 334 333 333 332 330 333 332 330 331 330 327 325 327 329 331 331 330 331 331 331 332 330 329 329
347 347 346 344 342 342 342 342 340 339 338 336 335 334 332 332 332 332 334 334 333 333 332 331 332 331 332 330 330 330 329 328 328 329 329 331 331 331 330 329 326 329 330
345 344 344 343 342 341 340 339 337 335 334 332 331 331 331 333 333 334 334 333 334 333 333 331 331 331 331 331 332 332 331 330 329 329 328 327 328 328 326 325 324 325 326
342 341 341 339 339 338 337 335 334 332 331 331 332 332 333 333 335 334 335 335 332 332 330 330 331 332 332 332 332 333 332 331 329 326 326 325 325 325 325 323 321 322 322
342 341 339 339 337 336 334 332 332 332 331 332 332 333 332 330 329 329 332 333 332 330 329 332 332 331 331 331 331 331 331 330 328 326 324 324 325 324 323 322 321 321 320
336 335 335 334 334 332 331 331 332 331 330 330 332 332 334 328 328 328 332 333 331 332 333 332 332 332 331 330 331 331 332 329 327 326 324 324 324 324 323 322 322 321 320
332 332 334 334 333 331 331 333 331 331 332 333 333 334 330 329 328 329 331 332 333 332 333 332 332 331 331 330 331 330 329 329 327 327 325 325 324 324 324 323 321 320 320
333 332 333 333 332 331 331 332 332 331 333 334 334 334 330 327 328 330 330 329 330 330 330 331 330 329 328 329 329 329 328 328 328 326 325 325 325 324 323 321 320 320 319
333 332 332 332 331 333 331 331 331 331 334 333 333 333 329 326 327 328 327 326 326 327 328 328 328 327 327 329 328 327 325 325 325 324 323 323 323 322 322 322 320 320 319
331 332 331 330 329 331 330 331 331 332 333 333 333 331 330 327 327 327 327 327 326 326 326 325 325 326 327 327 326 325 324 323 323 322 322 322 321 321 321 320 320 320 319
330 330 332 331 332 331 330 329 331 332 332 333 332 331 328 327 327 327 327 327 326 325 324 324 324 326 325 324 324 324 323 321 320 320 320 320 320 321 320 320 320 320 320
332 330 329 329 329 331 332 331 331 331 333 333 333 332 328 326 326 326 325 325 326 324 323 323 323 324 324 324 323 322 321 320 319 319 319 320 320 321 321 320 320 321 321
333 331 330 332 333 332 334 333 333 333 333 333 333 332 327 325 324 324 324 325 323 322 322 322 322 322 321 320 320 320 320 319 319 319 319 320 320 319 319 319 320 322 322
333 333 332 332 333 332 332 333 332 333 334 333 333 331 328 326 325 324 324 324 322 322 321 320 320 319 318 319 321 321 320 320 320 320 320 320 320 321 323 320 322 323 325
332 332 332 333 335 332 330 327 329 328 330 331 331 331 329 328 326 325 325 324 322 322 323 321 321 320 320 320 322 323 321 322 321 321 321 321 323 323 325 325 326 324 323
332 331 332 333 333 333 332 330 326 326 328 329 330 331 330 326 325 324 323 323 323 324 326 324 323 323 324 325 323 324 324 324 324 324 324 325 325 325 326 326 326 326 322
332 331 332 332 332 332 332 331 330 330 329 325 327 327 326 325 324 324 323 323 323 325 326 325 325 326 326 326 327 327 325 325 326 326 326 325 326 327 327 327 326 323 322
330 330 329 333 333 330 333 331 331 331 328 324 323 325 325 325 323 323 323 325 327 326 327 326 327 327 327 326 326 327 328 327 326 327 327 327 327 327 326 323 323 322 322
329 330 330 332 332 332 332 332 332 331 329 329 328 323 324 324 323 322 323 326 326 328 327 327 327 327 328 328 328 328 328 326 328 328 327 326 326 327 326 325 324 323 323
328 329 330 328 332 332 332 332 333 333 331 332 329 326 325 325 324 324 325 327 328 329 329 328 328 328 328 328 329 328 327 327 327 328 327 327 326 325 324 324 324 323 321
329 329 330 330 328 331 331 331 334 333 331 331 330 327 327 327 326 327 328 328 329 330 330 330 329 329 329 329 329 328 328 328 327 327 328 328 327 326 326 326 325 325 325
329 327 328 329 330 330 330 328 328 333 331 329 329 327 327 328 329 329 331 330 328 330 328 327 329 328 328 327 328 327 327 328 327 329 329 329 328 328 328 328 328 329 329
326 328 330 328 329 329 326 328 324 324 329 328 329 328 325 323 324 324 323 321 318 318 319 316 318 319 319 322 322 322 324 327 326 327 329 330 329 329 330 330 330 330 330
312 313 315 319 320 320 319 317 318 316 315 316 316 316 315 315 314 315 317 316 314 312 308 308 305 309 313 315 317 318 322 325 326 328 327 327 327 328 330 330 330 330 329
307 306 305 305 304 305 306 307 308 308 307 306 306 306 306 306 306 306 307 308 307 306 304 303 305 308 309 309 310 313 316 320 322 323 324 323 322 322 324 324 324 326 327
Wind_Speed
20 20 19 19 24 24 23 22 24 24 23 21 18 17 15 12 10 10 10 14 13 11 11 9 10 11 8 9 9 8 6 6 5 5 11 17 19 20 18 17 18 18 15
26 26 27 26 27 27 25 23 21 22 20 19 17 13 12 12 11 10 9 10 11 12 12 13 13 12 10 11 12 10 9 7 14 13 13 14 16 16 21 23 18 20 18
25 24 24 26 27 26 24 21 19 17 15 15 13 12 13 15 13 12 10 9 9 12 12 12 12 12 10 9 11 9 10 11 14 18 9 13 18 17 18 19 19 20 18
22 22 23 24 25 24 21 18 17 15 14 14 13 14 13 13 10 8 7 9 9 10 9 10 11 14 14 12 12 10 13 15 18 18 16 14 17 20 21 23 21 23 26
26 21 23 24 21 19 18 17 16 16 15 15 11 14 11 7 5 3 3 4 6 10 11 11 10 13 13 14 11 10 17 18 17 16 13 13 14 16 17 18 24 26 25
27 23 22 20 19 18 17 15 16 15 12 18 14 12 9 6 5 4 5 5 6 9 11 12 6 8 10 11 10 13 17 22 17 16 12 14 14 17 24 26 28 24 6
19 19 18 17 19 16 16 15 13 15 15 14 14 12 8 7 5 6 6 7 7 6 8 9 11 12 10 10 11 15 18 12 11 19 19 18 18 24 28 26 22 19 17
20 18 22 24 21 17 18 9 17 15 14 12 13 11 9 8 6 7 9 9 8 7 5 5 11 13 11 11 15 14 16 15 15 15 21 21 22 26 28 24 25 28 26
22 24 21 19 18 17 15 17 16 14 12 10 11 12 10 10 9 9 8 11 11 10 9 12 12 12 11 12 15 20 19 18 13 14 18 19 21 27 31 31 27 28 18
20 17 20 20 19 18 22 17 14 13 11 12 14 14 11 10 8 8 8 11 12 11 12 11 11 13 15 12 19 20 23 22 21 21 20 20 25 27 29 30 32 25 19
14 19 26 20 21 22 21 16 14 12 15 15 18 14 11 8 9 8 9 9 13 11 12 12 15 14 14 15 16 20 23 22 21 24 27 27 27 27 21 23 23 30 24
22 19 23 19 21 23 20 15 12 11 16 16 18 16 10 8 8 8 7 8 9 12 10 14 15 16 16 15 15 20 21 22 25 24 23 22 24 22 21 23 25 26 22
22 21 19 18 16 17 15 14 16 13 15 15 19 16 13 7 9 9 10 9 8 14 13 18 18 16 15 16 20 22 21 22 23 21 19 19 23 21 20 20 17 19 18
22 23 19 15 16 15 12 11 10 11 9 14 15 14 14 12 11 13 14 15 14 19 19 18 19 18 16 23 23 19 20 22 21 21 19 23 22 20 19 21 22 17 16
22 22 21 16 18 12 12 6 7 8 9 12 17 18 16 13 12 13 16 16 19 22 20 19 17 20 23 20 15 17 17 19 19 19 19 18 16 18 15 22 18 19 15
21 22 18 22 19 17 18 19 17 17 13 11 16 13 14 15 20 16 16 17 24 22 16 16 16 16 16 15 14 16 17 16 18 18 20 19 17 17 15 18 16 16 14
17 14 24 20 18 17 18 17 15 18 18 19 16 14 18 22 21 19 18 19 20 9 17 16 16 16 14 15 18 16 17 17 19 17 17 17 19 20 21 20 19 19 17
15 13 22 19 14 19 18 18 17 15 14 14 17 19 20 20 19 22 21 21 13 3 10 15 14 15 15 17 17 18 20 22 19 20 20 22 21 20 20 19 19 16 18
17 24 14 19 18 18 18 16 15 17 19 16 19 19 18 18 19 19 22 11 10 9 8 11 10 10 12 16 17 20 18 21 22 22 21 21 24 21 22 19 18 20 18
24 23 17 26 25 20 21 15 18 20 20 20 17 16 18 19 17 18 15 8 9 8 9 10 7 6 5 7 10 17 16 18 19 20 22 25 23 18 8 12 16 16 18
14 24 13 10 25 22 21 17 19 19 20 20 21 25 24 18 17 18 15 12 11 13 14 10 14 12 13 13 14 17 21 20 20 17 21 18 14 14 16 16 16 19 23
3 14 5 8 21 25 21 25 20 18 21 22 21 27 28 20 19 18 18 15 14 13 13 16 16 15 14 15 18 15 15 17 19 20 17 16 16 19 20 20 22 21 21
14 7 6 6 23 22 18 18 24 28 23 22 21 26 25 7 3 3 12 11 4 10 1 6 4 2 4 3 6 3 8 11 10 21 17 15 20 20 20 23 24 23 24
24 23 23 28 31 29 30 24 29 36 28 22 17 21 23 25 27 27 28 29 31 29 21 27 26 24 20 19 17 16 12 8 4 3 3 12 18 18 20 21 22 23 23
20 20 24 23 23 26 26 25 26 29 28 27 26 25 24 23 25 26 24 27 31 32 29 28 26 24 25 23 21 19 15 11 11 10 11 11 12 14 17 18 20 21 21
27 29 28 27 28 27 27 25 25 25 26 26 25 25 24 23 22 24 25 26 27 29 27 26 26 26 26 27 25 25 24 18 14 13 13 14 14 14 16 19 22 23 23
Wind_Direction
164 165 157 152 143 145 155 161 155 163 160 160 157 159 165 162 165 187 201 202 189 190 212 210 225 236 222 205 190 169 178 157 130 115 118 148 155 157 160 168 158 163 169
129 134 129 127 130 130 142 146 143 146 152 155 154 157 163 170 177 197 204 199 200 206 209 203 211 219 212 206 187 178 178 167 140 112 113 134 133 137 131 137 150 166 160
127 131 130 128 133 135 138 141 141 149 152 148 154 168 175 181 183 198 211 233 226 227 226 215 211 209 205 196 183 180 172 170 160 133 117 119 122 136 132 134 137 142 141
135 129 132 135 137 138 138 139 139 144 143 147 166 180 183 151 169 193 223 235 228 209 217 219 212 201 197 196 185 176 166 158 160 132 131 120 123 133 132 125 119 136 140
127 128 131 135 131 132 136 142 147 149 155 166 148 106 96 124 128 148 101 172 194 207 212 198 223 210 198 194 185 167 160 144 129 134 141 129 141 139 140 130 118 127 132
139 146 144 146 139 137 141 146 149 161 151 120 110 109 107 107 120 133 120 140 150 166 167 190 211 186 186 174 170 163 169 152 141 151 145 150 157 145 143 137 131 126 111
137 143 144 142 137 142 148 152 154 128 116 112 105 119 113 117 112 116 120 132 144 145 157 177 136 140 140 140 117 146 154 154 173 158 156 157 148 155 151 142 140 131 129
153 149 124 119 126 145 159 159 133 129 118 110 113 129 108 108 112 119 117 114 106 116 121 117 125 126 132 135 126 124 136 139 151 170 172 168 168 162 158 145 135 128 130
115 119 126 130 145 163 173 142 135 132 133 124 116 122 109 106 113 124 126 125 116 106 115 113 131 139 148 145 143 136 128 121 139 149 168 171 169 161 159 148 135 137 134
137 145 146 155 164 168 148 137 143 148 141 130 117 122 114 115 129 126 130 122 120 119 112 123 128 145 150 145 144 142 121 126 133 133 140 153 159 160 167 164 152 148 137
155 155 151 162 162 143 141 144 157 168 143 132 114 114 119 121 130 135 128 128 128 121 114 115 123 136 137 143 149 151 143 143 138 139 137 143 147 152 155 160 163 160 157
127 124 122 135 128 142 144 161 168 146 136 133 125 120 119 129 132 133 136 152 141 137 128 132 131 132 135 142 148 150 145 143 138 136 134 136 143 154 164 175 181 180 172
124 131 131 136 140 148 155 173 170 165 161 153 137 131 126 136 118 123 129 134 130 122 137 136 134 137 134 140 142 145 143 143 138 135 138 146 158 160 166 173 182 185 181
141 133 147 148 157 155 161 176 183 183 153 148 142 134 129 139 130 127 125 121 124 121 123 128 130 125 131 137 137 136 143 148 147 145 147 161 166 162 167 173 178 187 200
127 143 155 145 125 117 99 124 127 149 162 157 151 144 142 149 150 140 135 125 130 129 122 121 118 127 132 139 138 140 144 147 150 155 156 160 159 166 175 173 190 194 208
151 161 159 148 144 129 111 95 97 95 115 135 160 155 155 152 149 142 143 142 135 131 132 129 126 139 153 159 151 152 158 160 166 166 162 166 170 177 182 191 203 211 219
165 170 145 135 144 144 139 128 114 97 99 98 113 150 149 144 144 139 139 143 142 121 141 145 153 167 176 175 166 162 169 173 170 173 176 179 174 187 192 200 209 211 223
173 146 144 152 142 138 143 135 141 143 119 96 112 122 129 137 141 142 147 151 154 150 158 163 172 170 164 161 162 162 173 175 179 182 187 188 196 199 203 213 210 218 214
204 136 187 162 141 150 128 148 140 128 116 114 115 123 132 135 139 146 150 154 163 145 160 181 188 172 176 175 173 174 180 182 189 193 202 211 210 212 201 209 211 216 233
107 140 180 154 150 155 150 143 135 129 132 135 134 135 138 138 145 161 175 192 192 184 176 185 175 179 188 184 164 185 193 190 195 206 217 221 223 217 232 217 212 236 241
160 144 173 203 165 156 160 161 160 154 149 140 145 153 148 144 152 176 189 194 199 180 184 197 179 192 198 205 197 195 196 211 216 216 216 215 216 222 230 243 258 241 239
334 163 161 282 159 159 165 170 168 147 136 136 146 161 155 157 174 184 192 198 208 211 205 197 198 208 220 211 210 198 202 213 216 223 235 233 226 224 229 233 237 246 256
46 181 171 260 121 93 69 75 73 155 148 138 148 161 176 190 168 136 206 205 231 241 90 43 213 139 238 247 239 271 214 219 252 232 227 242 245 254 255 249 250 248 247
68 47 57 58 69 79 72 71 68 74 85 88 92 94 82 72 71 70 72 77 79 81 85 71 71 72 77 75 63 58 46 41 16 2 268 256 251 261 271 272 260 261 264
71 65 56 55 63 74 76 71 67 67 68 68 69 69 68 65 61 60 62 66 69 68 63 65 64 59 58 57 52 44 36 29 18 3 350 352 329 327 332 325 325 324 310
74 73 70 67 66 68 74 74 71 70 69 69 68 68 70 69 65 60 60 63 64 65 62 57 55 56 51 47 43 37 32 21 14 3 357 358 357 349 333 328 330 329 323